星链-37196(STARLINK-37196)

导读

STARLINK-37196(NORAD编号69163)是美国SpaceX公司星链(Starlink)星座的卫星之一,归属SpaceX的低轨互联网通信星座体系。星链计划旨在构建覆盖全球的天基高速互联网系统,该卫星作为二代星链组成部分,运行于近地轨道,为全球偏远地区、海洋等缺乏地面网络覆盖的区域提供宽带接入服务,支撑个人联网、物联网以及特殊场景通信需求,助力SpaceX完成全球低轨星座的组网布局,推动天基通信网络的覆盖能力提升。

基本信息
目录编号:
69163
目录名称:
STARLINK-37196
国际标识:
2026-111R
轨道中心:
EARTH
卫星名称:
星链-37196
卫星全名:
星链-37196(STARLINK-37196)
卫星状态:
在轨 (已飞行115 天)
发射日期:
2026-05-21 UTC
国别 :
美国 (US)
星等 :
--
该卫星已列入 空间交会检测服务 Space Conjunction Data Service (SCDS) ,当前飞行风险评估等级: 高风险
轨道信息
数据来源 国际轨道数据
星历时间: 2026-09-13T07:25:29+0800
11小时前
查看轨道信息
半长轴: 6840.736km
偏心率: 0.0001104
轨道倾角: 53.157°
近地点辐角 63.676°
升交点赤经 100.890°
平近点角 296.436°
近地点: 461.843km
远地点: 463.355km
周期: 93.846分钟
每日圈数: 15.344352
详细信息
固有亮度:
5
最大亮度:
2.5
卫星平台:
Starlink V1.0
覆盖范围:
全球
运营商:
太空探索技术公司
运营商所在国:
美国
制造商(研发单位):
太空探索技术公司
制造商所在国:
美国
使用方式:
暂无
卫星简介
Starlink 计划是 SpaceX 推出的全球卫星互联网项目,通过发射低轨道卫星,为全球尤其是偏远地区提供高速、低延迟的互联网服务。自 2019 年起,Starlink 已部署数千颗卫星,旨在缩小全球数字鸿沟,推动互联网普及。该项目还为军事、航空等行业提供通信支持,带来广泛经济效益。
2D轨道图
3D轨道图
轨道高度分析图
轨道倾角分析图
轨道综合分析图
查看轨道综合分析图
交会数据列表
事件ID 空间交会对象 最接近时刻(TCA) 交会距离 交会风险概率(CRP) 交会风险指数(CRI) 操作
CDM_260915-174705-854706-916321
2026-09-15T
17:47:11+0000
0.206 km
中距离
7.264076E-4 高风险 0.92
CDM_260914-232206-807006-916321
2026-09-14T
23:22:43+0000
0.355 km
远距离
2.877106E-4 高风险 0.84
CDM_260912-181503-168606-916321
2026-09-12T
18:15:57+0000
1.425 km
极远距离
7.502918E-6 低风险 0.53
CDM_260914-214806-807006-916321
2026-09-14T
21:48:56+0000
1.657 km
极远距离
3.174396E-6 低风险 0.45
CDM_260915-132404-742406-916321
OBJECT M (47424)
2026-09-15T
13:24:13+0000
2.150 km
极远距离
2.337611E-6 低风险 0.42
CDM_260915-161305-854706-916321
2026-09-15T
16:13:24+0000
2.476 km
极远距离
1.58E-6 低风险 0.39
CDM_260915-005606-807006-916321
2026-09-15T
00:56:30+0000
2.257 km
极远距离
1.449464E-6 低风险 0.38
与全量物体交会距离演化趋势
与全量物体交会风险概率演化趋势